STARLINK-2538, 48300

Orbit data source: Space-Track

STARLINK-2538, 48300 is a payload satellite owned by SpaceX/Seattle (US) in LEO that was launched on Thu, 29 Apr 2021 UTC via an FALCON 9 launch vehicle from the Air Force Eastern Test Range (AFETR). Payload-class satellites include a variety of spacecraft equipped with specific instruments for various scientific and technological missions. These include communications satellites like Starlink; space stations such as the ISS; scientific satellites like the Hubble; Earth observation satellites from companies like Planet Labs, Umbra, and HawkEye 360; GPS; miniature CubeSats for education and research; and military/defense satellites.

Loading next visibility...
Identifier
48300, 2021-036AA
Orbit
LEO
Country
Flag of USUS
Related business
Manufacturer
SpaceX/Seattle
Mission
Operational Commercial Communications
Bus & Motor
STARLINK, Unknown motor
Mass
260 kg wet, ~248 kg dry
Launch date (UTC)
2021-04-29 (5 years ago)
Launch vehicle
FALCON 9
Launch site
Air Force Eastern Test Range (AFETR)
Object type
Payload
Rocket body
Debris
Shape & HBR
Box + 1 Pan, 10.1 m
Radar Cross Section
13.562 m², Large (>1 m²)

Expand to show TLE details & history
Last TLE update: 5 hours ago

TLE from 5 hours ago
0 STARLINK-2538
1 48300U 21036AA  25355.50728394  .00000654  00000-0  62770-4 0  9996
2 48300  53.0550  82.5947 0001118  92.3715 267.7402 15.06398953256390
Epoch: 2025-12-21T12:10Z
TLE epoch observation values (Epoch: 2025-12-21T12:10:29.332Z)
Latitude
-0.00002°
Longitude
169.65373°
Altitude
548.125 km
Speed
7.589 km/s
True Right ascension
05h 30m 22s
True Declination
0° 00' 00"
Sunlit
Object was in full shadow at epoch
Visualization orbit readout
Latitude
Unknown
Longitude
Unknown
Altitude
Unknown
Speed
Unknown
Apparent Right ascension
Unknown
Apparent Declination
Unknown
Sunlit
N/A
Visualization observer readout
Local Sidereal Time
16:00:23
Azimuth
Unknown
Elevation
Unknown
Doppler factor
Unknown
Orbital elements
Apogee altitude
548.26 km
Perigee altitude
546.711 km
Semi-major axis
6,925.622 km
Eccentricity
0.00011
Inclination
53.055°
RAAN
82.5947°
Arg. of periapsis
92.3715°
True anomaly
267.7274°
Mean anomaly
267.7402°
Eccentric anomaly
267.7338°
Mean motion
3.76578 °/min
Orbital period
95.6 mins
BSTAR
0.00006277
Loading maneuver chart data...
Computing Atmospheric mass density...
Loading historical data...
Loading historical data...
Loading historical data...
Loading historical data...
Loading historical data...
Loading historical data...
Loading historical data...

Documentation

Showing up to 5 results
|